Tracking 19192 objects as of 21-Jun-2018
HD Live streaming from Space Station
objects crossing your sky now

SL-12 R/B(2)

Track SL-12 R/B(2) now!


NORAD ID: 23683
Int'l Code: 1995-054D
Perigee: 35,689.6 km
Apogee: 35,861.2 km
Inclination: 14.2 °
Period: 1,435.2 minutes
Semi major axis: 42146 km
RCS: 1.5848 m2 (large)
Launch date: October 11, 1995
Source: Commonwealth of Independent States (former USSR) (CIS)
Launch site: TYURATAM MISSILE AND SPACE COMPLEX (TTMTR)

Note: This is a ROCKET BODY
aabbcc
Your satellite tracking list
Your tracking list is empty




NASA's NSSDC Master Catalog

Two Line Element Set (TLE):
1 23683U 95054D   18172.21373928  .00000106  00000-0  00000+0 0  9995
2 23683  14.2040  23.8700 0020354  15.2627 336.3354  1.00337226 83127
Source of the keplerian elements: AFSPC